Time,TemperatureF,DewpointF,PressureIn,WindDirection,WindDirectionDegrees,WindSpeedMPH,WindSpeedGustMPH,Humidity,HourlyPrecipIn,Conditions,Clouds,dailyrainin,SoftwareType,DateUTC
2013-05-05 00:01:00,57.1,54.2,30.01,ENE,61,15.0,19.0,90,0.00,,---,0.05,VWS V14.01,2013-05-05 04:01:00,
2013-05-05 00:06:00,57.2,54.0,30.01,ENE,63,14.0,22.0,89,0.00,,---,0.00,VWS V14.01,2013-05-05 04:06:00,
2013-05-05 00:11:00,57.2,54.0,30.02,NE,40,13.0,18.0,89,0.00,,---,0.00,VWS V14.01,2013-05-05 04:11:00,
2013-05-05 00:16:00,57.1,53.9,30.02,ENE,67,14.0,22.0,89,0.00,,---,0.00,VWS V14.01,2013-05-05 04:16:00,
2013-05-05 00:21:00,57.1,53.9,30.01,ENE,61,19.0,19.0,89,0.00,,---,0.00,VWS V14.01,2013-05-05 04:21:00,
2013-05-05 00:26:00,57.1,53.9,30.01,NE,47,6.0,16.0,89,0.00,,---,0.00,VWS V14.01,2013-05-05 04:26:00,
2013-05-05 00:31:00,57.0,53.8,30.01,ENE,66,11.0,17.0,89,0.00,,---,0.00,VWS V14.01,2013-05-05 04:31:00,
2013-05-05 00:36:00,57.0,53.8,30.02,ENE,78,12.0,18.0,89,0.00,,---,0.00,VWS V14.01,2013-05-05 04:36:00,
2013-05-05 00:41:00,57.1,53.9,30.01,ENE,69,10.0,16.0,89,0.00,,---,0.00,VWS V14.01,2013-05-05 04:41:00,
2013-05-05 00:46:00,57.1,53.9,30.01,ENE,72,9.0,17.0,89,0.00,,---,0.00,VWS V14.01,2013-05-05 04:46:00,
2013-05-05 00:51:00,57.0,53.8,30.01,ENE,61,17.0,17.0,89,0.00,,---,0.00,VWS V14.01,2013-05-05 04:51:00,
2013-05-05 00:56:00,57.0,53.8,30.01,ENE,69,16.0,19.0,89,0.00,,---,0.00,VWS V14.01,2013-05-05 04:56:00,
2013-05-05 01:01:00,57.0,53.8,30.01,East,80,15.0,22.0,89,0.00,,---,0.00,VWS V14.01,2013-05-05 05:01:00,
2013-05-05 01:06:00,57.0,53.8,30.01,NE,48,13.0,23.0,89,0.00,,---,0.00,VWS V14.01,2013-05-05 05:06:00,
2013-05-05 01:11:00,57.0,53.8,30.01,ENE,65,16.0,20.0,89,0.00,,---,0.00,VWS V14.01,2013-05-05 05:11:00,
2013-05-05 01:16:00,57.0,53.8,30.00,ENE,58,10.0,20.0,89,0.00,,---,0.00,VWS V14.01,2013-05-05 05:16:00,
2013-05-05 01:21:00,57.0,53.8,30.00,ENE,71,10.0,19.0,89,0.00,,---,0.00,VWS V14.01,2013-05-05 05:21:00,
2013-05-05 01:26:00,57.1,53.9,30.00,NE,52,9.0,23.0,89,0.00,,---,0.00,VWS V14.01,2013-05-05 05:26:00,
2013-05-05 01:31:00,57.1,53.9,30.00,NE,56,13.0,23.0,89,0.00,,---,0.00,VWS V14.01,2013-05-05 05:31:00,
2013-05-05 01:36:00,57.2,54.0,30.00,ENE,76,17.0,23.0,89,0.00,,---,0.00,VWS V14.01,2013-05-05 05:36:00,
2013-05-05 01:41:00,57.2,54.0,30.00,ENE,68,14.0,19.0,89,0.00,,---,0.00,VWS V14.01,2013-05-05 05:41:00,
2013-05-05 01:46:00,57.1,53.9,30.00,NE,55,21.0,22.0,89,0.00,,---,0.00,VWS V14.01,2013-05-05 05:46:00,
2013-05-05 01:51:00,56.9,54.0,29.99,NE,46,9.0,21.0,90,0.00,,---,0.00,VWS V14.01,2013-05-05 05:51:00,
2013-05-05 01:56:00,56.8,53.9,29.99,NE,53,18.0,21.0,90,0.00,,---,0.00,VWS V14.01,2013-05-05 05:56:00,
2013-05-05 02:01:00,56.6,54.0,29.99,NE,55,12.0,17.0,91,0.00,,---,0.00,VWS V14.01,2013-05-05 06:01:00,
2013-05-05 02:06:00,56.5,53.9,29.99,ENE,74,15.0,18.0,91,0.00,,---,0.00,VWS V14.01,2013-05-05 06:06:00,
2013-05-05 02:11:00,56.4,54.1,29.99,ENE,59,11.0,16.0,92,0.00,,---,0.00,VWS V14.01,2013-05-05 06:11:00,
2013-05-05 02:16:00,56.4,54.1,29.99,ENE,62,10.0,14.0,92,0.00,,---,0.00,VWS V14.01,2013-05-05 06:16:00,
2013-05-05 02:21:00,56.4,54.1,29.99,ENE,65,10.0,16.0,92,0.00,,---,0.00,VWS V14.01,2013-05-05 06:21:00,
2013-05-05 02:26:00,56.4,54.1,29.98,NE,45,11.0,16.0,92,0.00,,---,0.00,VWS V14.01,2013-05-05 06:26:00,
2013-05-05 02:31:00,56.4,54.1,29.98,NE,55,10.0,16.0,92,0.00,,---,0.00,VWS V14.01,2013-05-05 06:31:00,
2013-05-05 02:36:00,56.4,54.1,29.98,ENE,58,10.0,17.0,92,0.00,,---,0.00,VWS V14.01,2013-05-05 06:36:00,
2013-05-05 02:41:00,56.5,54.2,29.97,ENE,61,11.0,16.0,92,0.00,,---,0.00,VWS V14.01,2013-05-05 06:41:00,
2013-05-05 02:46:00,56.5,54.2,29.97,NNE,19,7.0,14.0,92,0.00,,---,0.00,VWS V14.01,2013-05-05 06:46:00,
2013-05-05 02:51:00,56.4,54.1,29.98,NE,51,7.0,13.0,92,0.00,,---,0.00,VWS V14.01,2013-05-05 06:51:00,
2013-05-05 02:56:00,56.4,54.1,29.97,NE,49,14.0,15.0,92,0.00,,---,0.00,VWS V14.01,2013-05-05 06:56:00,
2013-05-05 03:01:00,56.3,54.0,29.97,ENE,64,11.0,13.0,92,0.00,,---,0.00,VWS V14.01,2013-05-05 07:01:00,
2013-05-05 03:06:00,56.3,54.0,29.97,NNE,30,13.0,13.0,92,0.00,,---,0.00,VWS V14.01,2013-05-05 07:06:00,
2013-05-05 03:11:00,56.3,54.0,29.97,ENE,57,12.0,13.0,92,0.00,,---,0.00,VWS V14.01,2013-05-05 07:11:00,
2013-05-05 03:16:00,56.3,54.3,29.97,NE,41,8.0,16.0,93,0.00,,---,0.00,VWS V14.01,2013-05-05 07:16:00,
2013-05-05 03:21:00,56.4,54.1,29.97,NE,51,14.0,15.0,92,0.00,,---,0.00,VWS V14.01,2013-05-05 07:21:00,
2013-05-05 03:26:00,56.4,54.1,29.96,NE,45,11.0,15.0,92,0.00,,---,0.00,VWS V14.01,2013-05-05 07:26:00,
2013-05-05 03:31:00,56.4,54.1,29.96,NE,45,10.0,14.0,92,0.00,,---,0.00,VWS V14.01,2013-05-05 07:31:00,
2013-05-05 03:36:00,56.4,54.4,29.96,NE,50,7.0,14.0,93,0.00,,---,0.00,VWS V14.01,2013-05-05 07:36:00,
2013-05-05 03:41:00,56.4,54.4,29.96,NE,50,7.0,15.0,93,0.00,,---,0.00,VWS V14.01,2013-05-05 07:41:00,
2013-05-05 03:46:00,56.4,54.4,29.96,NE,43,12.0,15.0,93,0.00,,---,0.00,VWS V14.01,2013-05-05 07:46:00,
2013-05-05 03:51:00,56.3,54.3,29.96,NE,54,11.0,14.0,93,0.00,,---,0.00,VWS V14.01,2013-05-05 07:51:00,
2013-05-05 03:56:00,56.3,54.3,29.96,NE,34,11.0,14.0,93,0.00,,---,0.00,VWS V14.01,2013-05-05 07:56:00,
2013-05-05 04:01:00,56.3,54.3,29.96,NNE,28,12.0,18.0,93,0.00,,---,0.00,VWS V14.01,2013-05-05 08:01:00,
2013-05-05 04:06:00,56.3,54.3,29.96,NE,52,7.0,17.0,93,0.00,,---,0.00,VWS V14.01,2013-05-05 08:06:00,
2013-05-05 04:11:00,56.2,54.2,29.95,ENE,61,14.0,16.0,93,0.00,,---,0.00,VWS V14.01,2013-05-05 08:11:00,
2013-05-05 04:16:00,56.2,54.2,29.96,ENE,57,9.0,18.0,93,0.00,,---,0.00,VWS V14.01,2013-05-05 08:16:00,
2013-05-05 04:21:00,56.0,54.0,29.96,ENE,69,14.0,17.0,93,0.00,,---,0.00,VWS V14.01,2013-05-05 08:21:00,
2013-05-05 04:26:00,56.0,54.0,29.96,ENE,58,10.0,20.0,93,0.00,,---,0.00,VWS V14.01,2013-05-05 08:26:00,
2013-05-05 04:31:00,56.0,54.3,29.95,NE,54,13.0,16.0,94,0.00,,---,0.00,VWS V14.01,2013-05-05 08:31:00,
2013-05-05 04:36:00,55.9,53.9,29.95,ENE,69,17.0,17.0,93,0.00,,---,0.00,VWS V14.01,2013-05-05 08:36:00,
2013-05-05 04:41:00,55.9,53.9,29.95,ENE,60,12.0,15.0,93,0.00,,---,0.00,VWS V14.01,2013-05-05 08:41:00,
2013-05-05 04:46:00,56.0,54.3,29.95,ENE,57,10.0,14.0,94,0.00,,---,0.00,VWS V14.01,2013-05-05 08:46:00,
2013-05-05 04:51:00,56.0,54.3,29.95,ENE,62,10.0,17.0,94,0.00,,---,0.00,VWS V14.01,2013-05-05 08:51:00,
2013-05-05 04:56:00,56.1,54.4,29.96,NE,56,11.0,17.0,94,0.00,,---,0.00,VWS V14.01,2013-05-05 08:56:00,
2013-05-05 05:01:00,56.1,54.4,29.96,NE,34,11.0,15.0,94,0.00,,---,0.00,VWS V14.01,2013-05-05 09:01:00,
2013-05-05 05:06:00,56.1,54.4,29.95,ENE,66,9.0,13.0,94,0.00,,---,0.00,VWS V14.01,2013-05-05 09:06:00,
2013-05-05 05:11:00,56.2,54.5,29.95,NE,45,10.0,15.0,94,0.00,,---,0.00,VWS V14.01,2013-05-05 09:11:00,
2013-05-05 05:16:00,56.2,54.5,29.96,NE,40,8.0,13.0,94,0.00,,---,0.00,VWS V14.01,2013-05-05 09:16:00,
2013-05-05 05:21:00,56.3,54.6,29.96,NE,47,13.0,15.0,94,0.00,,---,0.00,VWS V14.01,2013-05-05 09:21:00,
2013-05-05 05:26:00,56.5,54.8,29.95,NE,41,10.0,15.0,94,0.00,,---,0.00,VWS V14.01,2013-05-05 09:26:00,
2013-05-05 05:31:00,56.6,54.9,29.96,NE,53,10.0,14.0,94,0.00,,---,0.00,VWS V14.01,2013-05-05 09:31:00,
2013-05-05 05:35:00,56.7,55.0,29.96,ENE,59,9.0,15.0,94,0.00,,---,0.00,VWS V14.01,2013-05-05 09:35:00,
2013-05-05 05:40:00,56.9,55.2,29.96,ENE,68,14.0,14.0,94,0.00,,---,0.00,VWS V14.01,2013-05-05 09:40:00,
2013-05-05 05:45:00,57.1,55.4,29.96,ENE,70,11.0,16.0,94,0.00,,---,0.00,VWS V14.01,2013-05-05 09:45:00,
2013-05-05 05:50:00,57.2,55.5,29.96,ENE,69,12.0,17.0,94,0.00,,---,0.00,VWS V14.01,2013-05-05 09:50:00,
2013-05-05 05:55:00,57.2,55.5,29.96,ENE,74,10.0,15.0,94,0.00,,---,0.00,VWS V14.01,2013-05-05 09:55:00,
2013-05-05 06:00:00,57.3,55.6,29.97,NE,52,9.0,15.0,94,0.00,,---,0.00,VWS V14.01,2013-05-05 10:00:00,
2013-05-05 06:05:00,57.3,55.6,29.97,NNE,27,10.0,17.0,94,0.00,,---,0.00,VWS V14.01,2013-05-05 10:05:00,
2013-05-05 06:11:00,57.3,55.6,29.97,ENE,69,9.0,21.0,94,0.01,,---,0.01,VWS V14.01,2013-05-05 10:11:00,
2013-05-05 06:16:00,57.4,55.7,29.97,ENE,71,9.0,16.0,94,0.01,,---,0.01,VWS V14.01,2013-05-05 10:16:00,
2013-05-05 06:20:00,57.4,55.7,29.97,ENE,57,11.0,15.0,94,0.01,,---,0.01,VWS V14.01,2013-05-05 10:20:00,
2013-05-05 06:25:00,57.5,55.8,29.97,NE,51,16.0,19.0,94,0.01,,---,0.01,VWS V14.01,2013-05-05 10:25:00,
2013-05-05 06:30:00,57.5,55.8,29.97,ENE,61,11.0,18.0,94,0.01,,---,0.01,VWS V14.01,2013-05-05 10:30:00,
2013-05-05 06:35:00,57.5,55.8,29.97,ENE,75,9.0,14.0,94,0.01,,---,0.01,VWS V14.01,2013-05-05 10:35:00,
2013-05-05 06:40:00,57.5,55.8,29.97,ENE,72,12.0,16.0,94,0.01,,---,0.01,VWS V14.01,2013-05-05 10:40:00,
2013-05-05 06:45:00,57.5,55.8,29.98,ENE,65,14.0,19.0,94,0.01,,---,0.01,VWS V14.01,2013-05-05 10:45:00,
2013-05-05 06:50:00,57.5,55.8,29.98,ENE,70,14.0,18.0,94,0.01,,---,0.01,VWS V14.01,2013-05-05 10:50:00,
2013-05-05 06:55:00,57.5,55.8,29.98,East,85,10.0,17.0,94,0.01,,---,0.01,VWS V14.01,2013-05-05 10:55:00,
2013-05-05 07:00:00,57.6,55.9,29.98,ENE,58,15.0,18.0,94,0.01,,---,0.01,VWS V14.01,2013-05-05 11:00:00,
2013-05-05 07:05:00,57.7,56.0,29.98,NE,55,10.0,15.0,94,0.01,,---,0.01,VWS V14.01,2013-05-05 11:05:00,
2013-05-05 07:10:00,57.8,56.1,29.98,ENE,76,15.0,18.0,94,0.00,,---,0.01,VWS V14.01,2013-05-05 11:10:00,
2013-05-05 07:15:00,57.8,56.1,29.98,ENE,77,11.0,13.0,94,0.00,,---,0.01,VWS V14.01,2013-05-05 11:15:00,
2013-05-05 07:20:00,57.9,56.2,29.98,NE,47,10.0,19.0,94,0.00,,---,0.01,VWS V14.01,2013-05-05 11:20:00,
2013-05-05 07:25:00,57.9,56.2,29.98,NE,46,8.0,16.0,94,0.00,,---,0.01,VWS V14.01,2013-05-05 11:25:00,
2013-05-05 07:30:00,58.0,56.3,29.98,ENE,62,15.0,19.0,94,0.00,,---,0.01,VWS V14.01,2013-05-05 11:30:00,
2013-05-05 07:35:00,58.1,56.4,29.98,NE,35,12.0,15.0,94,0.00,,---,0.01,VWS V14.01,2013-05-05 11:35:00,
2013-05-05 07:40:00,58.2,56.5,29.98,NE,51,10.0,17.0,94,0.00,,---,0.01,VWS V14.01,2013-05-05 11:40:00,
2013-05-05 07:45:00,58.2,56.5,29.98,NE,45,9.0,17.0,94,0.00,,---,0.01,VWS V14.01,2013-05-05 11:45:00,
2013-05-05 07:50:00,58.3,56.6,29.98,ENE,61,11.0,16.0,94,0.00,,---,0.01,VWS V14.01,2013-05-05 11:50:00,
2013-05-05 07:55:00,58.4,56.7,29.98,East,82,15.0,16.0,94,0.00,,---,0.01,VWS V14.01,2013-05-05 11:55:00,
2013-05-05 08:00:00,58.5,56.8,29.98,ENE,72,16.0,16.0,94,0.00,,---,0.01,VWS V14.01,2013-05-05 12:00:00,
2013-05-05 08:05:00,58.6,56.9,29.98,ENE,59,14.0,17.0,94,0.00,,---,0.01,VWS V14.01,2013-05-05 12:05:00,
2013-05-05 08:10:00,58.7,57.0,29.98,East,90,11.0,17.0,94,0.00,,---,0.01,VWS V14.01,2013-05-05 12:10:00,
2013-05-05 08:15:00,58.7,57.0,29.99,ENE,76,14.0,19.0,94,0.00,,---,0.01,VWS V14.01,2013-05-05 12:15:00,
2013-05-05 08:20:00,58.8,57.1,29.99,ENE,57,12.0,20.0,94,0.00,,---,0.01,VWS V14.01,2013-05-05 12:20:00,
2013-05-05 08:25:00,58.8,57.1,29.99,ENE,63,12.0,15.0,94,0.02,,---,0.03,VWS V14.01,2013-05-05 12:25:00,
2013-05-05 08:30:00,58.8,57.1,29.99,NE,56,13.0,16.0,94,0.02,,---,0.03,VWS V14.01,2013-05-05 12:30:00,
2013-05-05 08:35:00,58.9,57.2,29.99,ENE,58,14.0,17.0,94,0.02,,---,0.03,VWS V14.01,2013-05-05 12:35:00,
2013-05-05 08:40:00,59.0,57.3,29.99,ENE,65,16.0,16.0,94,0.02,,---,0.03,VWS V14.01,2013-05-05 12:40:00,
2013-05-05 08:45:00,59.1,57.4,29.99,NE,47,10.0,16.0,94,0.02,,---,0.03,VWS V14.01,2013-05-05 12:45:00,
2013-05-05 08:50:00,59.3,57.6,29.99,East,84,7.0,16.0,94,0.02,,---,0.03,VWS V14.01,2013-05-05 12:50:00,
2013-05-05 08:55:00,59.7,58.0,29.99,NE,44,8.0,15.0,94,0.02,,---,0.03,VWS V14.01,2013-05-05 12:55:00,
2013-05-05 09:00:00,60.1,58.4,29.99,ENE,63,12.0,16.0,94,0.02,,---,0.03,VWS V14.01,2013-05-05 13:00:00,
2013-05-05 09:05:00,60.2,58.5,30.00,ENE,68,14.0,16.0,94,0.02,,---,0.03,VWS V14.01,2013-05-05 13:05:00,
2013-05-05 09:10:00,60.3,58.3,30.00,ENE,69,10.0,15.0,93,0.02,,---,0.03,VWS V14.01,2013-05-05 13:10:00,
2013-05-05 09:15:00,60.4,58.4,30.00,NE,51,8.0,15.0,93,0.02,,---,0.03,VWS V14.01,2013-05-05 13:15:00,
2013-05-05 09:20:00,60.6,58.6,29.99,ENE,71,15.0,17.0,93,0.02,,---,0.03,VWS V14.01,2013-05-05 13:20:00,
2013-05-05 09:25:00,60.6,58.6,29.99,ENE,65,7.0,15.0,93,0.02,,---,0.03,VWS V14.01,2013-05-05 13:25:00,
2013-05-05 09:30:00,60.8,58.8,29.99,ENE,68,8.0,16.0,93,0.00,,---,0.03,VWS V14.01,2013-05-05 13:30:00,
2013-05-05 09:35:00,61.0,58.7,29.99,ENE,61,12.0,17.0,92,0.00,,---,0.03,VWS V14.01,2013-05-05 13:35:00,
2013-05-05 09:40:00,61.2,58.9,29.99,East,80,9.0,16.0,92,0.00,,---,0.03,VWS V14.01,2013-05-05 13:40:00,
2013-05-05 09:45:00,61.4,59.1,29.99,ENE,58,12.0,15.0,92,0.00,,---,0.03,VWS V14.01,2013-05-05 13:45:00,
2013-05-05 09:50:00,61.8,59.5,29.99,ENE,61,16.0,16.0,92,0.00,,---,0.03,VWS V14.01,2013-05-05 13:50:00,
2013-05-05 09:55:00,62.0,59.3,29.99,ENE,78,12.0,17.0,91,0.00,,---,0.03,VWS V14.01,2013-05-05 13:55:00,
2013-05-05 10:00:00,62.1,59.5,29.99,ENE,66,14.0,20.0,91,0.00,,---,0.03,VWS V14.01,2013-05-05 14:00:00,
2013-05-05 10:05:00,62.3,59.6,29.99,ENE,67,11.0,12.0,91,0.00,,---,0.03,VWS V14.01,2013-05-05 14:05:00,
2013-05-05 10:10:00,62.7,60.0,29.99,NE,40,9.0,13.0,91,0.00,,---,0.03,VWS V14.01,2013-05-05 14:10:00,
2013-05-05 10:15:00,63.2,60.5,29.99,ENE,62,8.0,13.0,91,0.00,,---,0.03,VWS V14.01,2013-05-05 14:15:00,
2013-05-05 10:20:00,63.5,60.5,29.99,ENE,61,11.0,18.0,90,0.00,,---,0.03,VWS V14.01,2013-05-05 14:20:00,
2013-05-05 10:25:00,63.7,60.4,29.99,ENE,76,12.0,14.0,89,0.00,,---,0.03,VWS V14.01,2013-05-05 14:25:00,
2013-05-05 10:30:00,63.9,60.6,29.99,ENE,65,12.0,14.0,89,0.00,,---,0.03,VWS V14.01,2013-05-05 14:30:00,
2013-05-05 10:35:00,64.1,60.8,29.99,East,79,9.0,16.0,89,0.00,,---,0.03,VWS V14.01,2013-05-05 14:35:00,
2013-05-05 10:40:00,64.3,61.3,29.99,East,86,9.0,13.0,90,0.00,,---,0.03,VWS V14.01,2013-05-05 14:40:00,
2013-05-05 10:45:00,64.3,61.0,30.00,ENE,77,11.0,17.0,89,0.00,,---,0.03,VWS V14.01,2013-05-05 14:45:00,
2013-05-05 10:50:00,64.5,61.2,29.99,East,88,11.0,14.0,89,0.00,,---,0.03,VWS V14.01,2013-05-05 14:50:00,
2013-05-05 10:55:00,64.8,61.5,30.00,East,93,14.0,15.0,89,0.00,,---,0.03,VWS V14.01,2013-05-05 14:55:00,
2013-05-05 11:00:00,65.2,61.9,29.99,ENE,69,11.0,12.0,89,0.00,,---,0.03,VWS V14.01,2013-05-05 15:00:00,
2013-05-05 11:05:00,65.4,62.1,30.00,ENE,71,11.0,11.0,89,0.00,,---,0.03,VWS V14.01,2013-05-05 15:05:00,
2013-05-05 11:10:00,65.6,62.0,30.00,ENE,71,12.0,13.0,88,0.00,,---,0.03,VWS V14.01,2013-05-05 15:10:00,
2013-05-05 11:15:00,65.7,62.0,30.00,East,82,11.0,14.0,88,0.00,,---,0.03,VWS V14.01,2013-05-05 15:15:00,
2013-05-05 11:20:00,65.7,62.0,29.99,ENE,68,10.0,11.0,88,0.00,,---,0.03,VWS V14.01,2013-05-05 15:20:00,
2013-05-05 11:25:00,66.2,62.9,29.99,ENE,78,8.0,15.0,89,0.00,,---,0.03,VWS V14.01,2013-05-05 15:25:00,
2013-05-05 11:30:00,66.5,62.8,29.99,ENE,58,8.0,14.0,88,0.00,,---,0.03,VWS V14.01,2013-05-05 15:30:00,
2013-05-05 11:35:00,66.9,62.6,29.99,ENE,78,12.0,18.0,86,0.00,,---,0.03,VWS V14.01,2013-05-05 15:35:00,
2013-05-05 11:40:00,66.7,62.4,29.99,ENE,67,14.0,17.0,86,0.00,,---,0.03,VWS V14.01,2013-05-05 15:40:00,
2013-05-05 11:45:00,67.0,62.7,29.99,East,80,17.0,17.0,86,0.00,,---,0.03,VWS V14.01,2013-05-05 15:45:00,
2013-05-05 11:50:00,66.9,62.6,29.99,ENE,59,12.0,18.0,86,0.00,,---,0.03,VWS V14.01,2013-05-05 15:50:00,
2013-05-05 11:55:00,66.6,62.3,29.98,ENE,75,10.0,15.0,86,0.00,,---,0.03,VWS V14.01,2013-05-05 15:55:00,
2013-05-05 12:00:00,66.5,62.2,29.98,ENE,69,13.0,18.0,86,0.00,,---,0.03,VWS V14.01,2013-05-05 16:00:00,
2013-05-05 12:05:00,66.6,62.3,29.99,ENE,61,11.0,16.0,86,0.00,,---,0.03,VWS V14.01,2013-05-05 16:05:00,
2013-05-05 12:10:00,66.8,62.5,29.99,East,93,11.0,14.0,86,0.00,,---,0.03,VWS V14.01,2013-05-05 16:10:00,
2013-05-05 12:15:00,66.9,62.2,29.98,ENE,72,13.0,16.0,85,0.00,,---,0.03,VWS V14.01,2013-05-05 16:15:00,
2013-05-05 12:20:00,66.9,62.2,29.99,ENE,64,10.0,14.0,85,0.00,,---,0.03,VWS V14.01,2013-05-05 16:20:00,
2013-05-05 12:25:00,67.3,63.0,29.99,East,84,10.0,13.0,86,0.00,,---,0.03,VWS V14.01,2013-05-05 16:25:00,
2013-05-05 12:30:00,67.7,63.0,29.98,NE,53,10.0,16.0,85,0.00,,---,0.03,VWS V14.01,2013-05-05 16:30:00,
2013-05-05 12:35:00,67.7,63.0,29.98,East,84,23.0,23.0,85,0.00,,---,0.03,VWS V14.01,2013-05-05 16:35:00,
2013-05-05 12:40:00,68.0,63.0,29.98,ENE,70,13.0,22.0,84,0.00,,---,0.03,VWS V14.01,2013-05-05 16:40:00,
2013-05-05 12:45:00,68.1,62.8,29.98,ENE,76,17.0,22.0,83,0.00,,---,0.03,VWS V14.01,2013-05-05 16:45:00,
2013-05-05 12:50:00,68.2,62.8,29.98,East,92,13.0,17.0,83,0.00,,---,0.03,VWS V14.01,2013-05-05 16:50:00,
2013-05-05 12:55:00,68.1,62.4,29.98,East,97,19.0,25.0,82,0.00,,---,0.03,VWS V14.01,2013-05-05 16:55:00,
2013-05-05 13:00:00,68.1,62.4,29.98,East,97,19.0,22.0,82,0.00,,---,0.03,VWS V14.01,2013-05-05 17:00:00,
2013-05-05 13:05:00,68.5,62.8,29.98,East,81,15.0,19.0,82,0.00,,---,0.03,VWS V14.01,2013-05-05 17:05:00,
2013-05-05 13:10:00,68.6,62.5,29.98,ENE,75,14.0,22.0,81,0.00,,---,0.03,VWS V14.01,2013-05-05 17:10:00,
2013-05-05 13:15:00,68.9,62.8,29.97,East,85,13.0,19.0,81,0.00,,---,0.03,VWS V14.01,2013-05-05 17:15:00,
2013-05-05 13:20:00,68.8,62.7,29.98,East,86,17.0,19.0,81,0.00,,---,0.03,VWS V14.01,2013-05-05 17:20:00,
2013-05-05 13:25:00,68.3,62.2,29.98,ENE,72,13.0,21.0,81,0.00,,---,0.03,VWS V14.01,2013-05-05 17:25:00,
2013-05-05 13:30:00,68.6,62.9,29.98,ENE,75,13.0,19.0,82,0.00,,---,0.03,VWS V14.01,2013-05-05 17:30:00,
2013-05-05 13:35:00,68.7,63.0,29.97,ENE,63,17.0,20.0,82,0.00,,---,0.03,VWS V14.01,2013-05-05 17:35:00,
2013-05-05 13:40:00,68.6,62.5,29.98,East,94,18.0,24.0,81,0.00,,---,0.03,VWS V14.01,2013-05-05 17:40:00,
2013-05-05 13:45:00,68.9,63.2,29.98,East,92,16.0,22.0,82,0.00,,---,0.03,VWS V14.01,2013-05-05 17:45:00,
2013-05-05 13:50:00,68.3,62.2,29.98,ESE,107,18.0,22.0,81,0.00,,---,0.03,VWS V14.01,2013-05-05 17:50:00,
2013-05-05 13:55:00,67.3,62.0,29.98,ESE,104,17.0,20.0,83,0.00,,---,0.03,VWS V14.01,2013-05-05 17:55:00,
2013-05-05 14:00:00,66.8,61.8,29.98,East,95,17.0,18.0,84,0.00,,---,0.03,VWS V14.01,2013-05-05 18:00:00,
2013-05-05 14:05:00,66.7,61.7,29.97,East,101,17.0,19.0,84,0.00,,---,0.03,VWS V14.01,2013-05-05 18:05:00,
2013-05-05 14:10:00,66.5,61.9,29.97,East,101,16.0,17.0,85,0.00,,---,0.03,VWS V14.01,2013-05-05 18:10:00,
2013-05-05 14:15:00,66.5,61.9,29.97,East,101,18.0,20.0,85,0.00,,---,0.03,VWS V14.01,2013-05-05 18:15:00,
2013-05-05 14:20:00,66.4,62.1,29.97,East,83,17.0,19.0,86,0.00,,---,0.03,VWS V14.01,2013-05-05 18:20:00,
2013-05-05 14:25:00,66.7,61.7,29.97,ESE,107,17.0,20.0,84,0.00,,---,0.03,VWS V14.01,2013-05-05 18:25:00,
2013-05-05 14:30:00,66.2,61.9,29.97,ESE,103,16.0,19.0,86,0.00,,---,0.03,VWS V14.01,2013-05-05 18:30:00,
2013-05-05 14:35:00,66.0,61.7,29.97,East,101,17.0,18.0,86,0.00,,---,0.03,VWS V14.01,2013-05-05 18:35:00,
2013-05-05 14:40:00,66.4,62.1,29.97,ESE,105,18.0,21.0,86,0.00,,---,0.03,VWS V14.01,2013-05-05 18:40:00,
2013-05-05 14:45:00,67.0,62.0,29.97,ESE,104,20.0,20.0,84,0.00,,---,0.03,VWS V14.01,2013-05-05 18:45:00,
2013-05-05 14:50:00,67.2,62.2,29.98,ESE,106,14.0,21.0,84,0.00,,---,0.03,VWS V14.01,2013-05-05 18:50:00,
2013-05-05 14:55:00,66.7,61.7,29.98,ESE,106,14.0,16.0,84,0.00,,---,0.03,VWS V14.01,2013-05-05 18:55:00,
2013-05-05 14:59:00,66.2,61.9,29.97,ESE,105,14.0,15.0,86,0.00,,---,0.03,VWS V14.01,2013-05-05 18:59:00,
2013-05-05 15:04:00,66.0,61.7,29.97,ESE,105,14.0,17.0,86,0.00,,---,0.03,VWS V14.01,2013-05-05 19:04:00,
2013-05-05 15:09:00,65.9,61.9,29.97,ESE,103,13.0,16.0,87,0.00,,---,0.03,VWS V14.01,2013-05-05 19:09:00,
2013-05-05 15:14:00,65.8,61.8,29.97,ESE,109,15.0,16.0,87,0.00,,---,0.03,VWS V14.01,2013-05-05 19:14:00,
2013-05-05 15:19:00,65.7,61.7,29.97,ESE,108,13.0,16.0,87,0.00,,---,0.03,VWS V14.01,2013-05-05 19:19:00,
2013-05-05 15:24:00,65.8,61.8,29.97,ESE,104,17.0,18.0,87,0.00,,---,0.03,VWS V14.01,2013-05-05 19:24:00,
2013-05-05 15:29:00,65.8,61.8,29.97,ESE,115,14.0,15.0,87,0.00,,---,0.03,VWS V14.01,2013-05-05 19:29:00,
2013-05-05 15:34:00,65.6,61.6,29.97,ESE,104,16.0,18.0,87,0.00,,---,0.03,VWS V14.01,2013-05-05 19:34:00,
2013-05-05 15:39:00,65.8,61.8,29.97,ESE,103,16.0,18.0,87,0.00,,---,0.03,VWS V14.01,2013-05-05 19:39:00,
2013-05-05 15:44:00,65.8,61.8,29.97,ESE,107,16.0,17.0,87,0.00,,---,0.03,VWS V14.01,2013-05-05 19:44:00,
2013-05-05 15:49:00,65.9,61.9,29.96,ESE,102,21.0,21.0,87,0.00,,---,0.03,VWS V14.01,2013-05-05 19:49:00,
2013-05-05 15:54:00,66.5,61.9,29.96,East,95,19.0,20.0,85,0.00,,---,0.03,VWS V14.01,2013-05-05 19:54:00,
2013-05-05 15:59:00,66.6,61.6,29.96,East,94,19.0,23.0,84,0.00,,---,0.03,VWS V14.01,2013-05-05 19:59:00,
2013-05-05 16:04:00,66.4,61.4,29.96,East,93,21.0,22.0,84,0.00,,---,0.03,VWS V14.01,2013-05-05 20:04:00,
2013-05-05 16:09:00,66.4,61.8,29.96,East,98,18.0,21.0,85,0.00,,---,0.03,VWS V14.01,2013-05-05 20:09:00,
2013-05-05 16:14:00,66.1,61.5,29.96,ESE,103,17.0,20.0,85,0.00,,---,0.03,VWS V14.01,2013-05-05 20:14:00,
2013-05-05 16:19:00,66.3,61.7,29.96,East,98,22.0,22.0,85,0.00,,---,0.03,VWS V14.01,2013-05-05 20:19:00,
2013-05-05 16:24:00,66.4,61.4,29.95,East,98,18.0,21.0,84,0.00,,---,0.03,VWS V14.01,2013-05-05 20:24:00,
2013-05-05 16:29:00,66.5,61.5,29.95,East,93,21.0,22.0,84,0.00,,---,0.03,VWS V14.01,2013-05-05 20:29:00,
2013-05-05 16:34:00,66.5,61.9,29.95,East,98,19.0,20.0,85,0.00,,---,0.03,VWS V14.01,2013-05-05 20:34:00,
2013-05-05 16:39:00,66.6,61.6,29.95,East,100,18.0,22.0,84,0.00,,---,0.03,VWS V14.01,2013-05-05 20:39:00,
2013-05-05 16:44:00,66.5,61.5,29.95,East,101,17.0,19.0,84,0.00,,---,0.03,VWS V14.01,2013-05-05 20:44:00,
2013-05-05 16:49:00,66.6,61.6,29.95,ESE,103,17.0,19.0,84,0.00,,---,0.03,VWS V14.01,2013-05-05 20:49:00,
2013-05-05 16:54:00,66.5,61.5,29.95,East,101,17.0,18.0,84,0.00,,---,0.03,VWS V14.01,2013-05-05 20:54:00,
2013-05-05 16:59:00,66.4,61.4,29.95,ESE,103,16.0,19.0,84,0.00,,---,0.03,VWS V14.01,2013-05-05 20:59:00,
2013-05-05 17:04:00,66.5,61.5,29.96,ESE,103,16.0,18.0,84,0.00,,---,0.03,VWS V14.01,2013-05-05 21:04:00,
2013-05-05 17:09:00,66.4,61.4,29.95,ESE,103,16.0,18.0,84,0.00,,---,0.03,VWS V14.01,2013-05-05 21:09:00,
2013-05-05 17:14:00,66.3,61.3,29.95,East,101,18.0,22.0,84,0.00,,---,0.03,VWS V14.01,2013-05-05 21:14:00,
2013-05-05 17:19:00,66.4,61.4,29.95,ESE,102,18.0,22.0,84,0.00,,---,0.03,VWS V14.01,2013-05-05 21:19:00,
2013-05-05 17:24:00,66.3,61.7,29.95,East,101,18.0,22.0,85,0.00,,---,0.03,VWS V14.01,2013-05-05 21:24:00,
2013-05-05 17:29:00,66.5,61.5,29.95,East,101,20.0,22.0,84,0.00,,---,0.03,VWS V14.01,2013-05-05 21:29:00,
2013-05-05 17:34:00,66.3,61.3,29.95,East,97,17.0,20.0,84,0.00,,---,0.03,VWS V14.01,2013-05-05 21:34:00,
2013-05-05 17:39:00,66.0,61.4,29.95,East,98,18.0,20.0,85,0.00,,---,0.03,VWS V14.01,2013-05-05 21:39:00,
2013-05-05 17:44:00,65.9,61.3,29.95,East,92,19.0,20.0,85,0.00,,---,0.03,VWS V14.01,2013-05-05 21:44:00,
2013-05-05 17:49:00,66.0,61.4,29.94,East,99,17.0,23.0,85,0.00,,---,0.03,VWS V14.01,2013-05-05 21:49:00,
2013-05-05 17:54:00,66.3,61.7,29.94,East,94,18.0,23.0,85,0.00,,---,0.03,VWS V14.01,2013-05-05 21:54:00,
2013-05-05 17:59:00,66.4,61.4,29.94,East,98,24.0,24.0,84,0.00,,---,0.03,VWS V14.01,2013-05-05 21:59:00,
2013-05-05 18:04:00,66.6,61.6,29.94,East,84,17.0,25.0,84,0.00,,---,0.03,VWS V14.01,2013-05-05 22:04:00,
2013-05-05 18:09:00,67.6,61.9,29.95,East,96,19.0,22.0,82,0.00,,---,0.03,VWS V14.01,2013-05-05 22:09:00,
2013-05-05 18:14:00,67.5,61.8,29.95,East,87,15.0,18.0,82,0.00,,---,0.03,VWS V14.01,2013-05-05 22:14:00,
2013-05-05 18:19:00,67.2,61.5,29.95,East,92,18.0,18.0,82,0.00,,---,0.03,VWS V14.01,2013-05-05 22:19:00,
2013-05-05 18:24:00,67.0,61.7,29.95,East,84,16.0,23.0,83,0.00,,---,0.03,VWS V14.01,2013-05-05 22:24:00,
2013-05-05 18:29:00,66.8,61.8,29.95,East,94,15.0,25.0,84,0.00,,---,0.03,VWS V14.01,2013-05-05 22:29:00,
2013-05-05 18:34:00,66.6,61.6,29.95,East,93,15.0,17.0,84,0.00,,---,0.03,VWS V14.01,2013-05-05 22:34:00,
2013-05-05 18:39:00,66.6,61.6,29.95,East,92,16.0,23.0,84,0.00,,---,0.03,VWS V14.01,2013-05-05 22:39:00,
2013-05-05 18:44:00,66.6,61.6,29.95,East,80,16.0,20.0,84,0.00,,---,0.03,VWS V14.01,2013-05-05 22:44:00,
2013-05-05 18:49:00,66.6,61.6,29.95,East,90,16.0,19.0,84,0.00,,---,0.03,VWS V14.01,2013-05-05 22:49:00,
2013-05-05 18:54:00,66.6,62.0,29.95,East,84,15.0,17.0,85,0.00,,---,0.03,VWS V14.01,2013-05-05 22:54:00,
2013-05-05 18:59:00,66.5,61.9,29.95,East,89,17.0,19.0,85,0.00,,---,0.03,VWS V14.01,2013-05-05 22:59:00,
2013-05-05 19:04:00,66.1,61.1,29.95,East,92,17.0,18.0,84,0.00,,---,0.03,VWS V14.01,2013-05-05 23:04:00,
2013-05-05 19:09:00,66.0,61.0,29.94,East,89,15.0,20.0,84,0.00,,---,0.03,VWS V14.01,2013-05-05 23:09:00,
2013-05-05 19:14:00,65.9,60.9,29.94,East,85,14.0,19.0,84,0.00,,---,0.03,VWS V14.01,2013-05-05 23:14:00,
2013-05-05 19:19:00,65.8,61.2,29.95,East,80,7.0,16.0,85,0.00,,---,0.03,VWS V14.01,2013-05-05 23:19:00,
2013-05-05 19:24:00,65.8,61.2,29.95,ENE,76,12.0,14.0,85,0.00,,---,0.03,VWS V14.01,2013-05-05 23:24:00,
2013-05-05 19:29:00,65.6,61.3,29.96,ENE,77,14.0,16.0,86,0.00,,---,0.03,VWS V14.01,2013-05-05 23:29:00,
2013-05-05 19:34:00,65.4,61.4,29.95,East,95,14.0,19.0,87,0.00,,---,0.03,VWS V14.01,2013-05-05 23:34:00,
2013-05-05 19:39:00,65.3,61.3,29.95,East,90,14.0,16.0,87,0.00,,---,0.03,VWS V14.01,2013-05-05 23:39:00,
2013-05-05 19:44:00,65.3,61.3,29.96,East,89,13.0,17.0,87,0.00,,---,0.03,VWS V14.01,2013-05-05 23:44:00,
2013-05-05 19:49:00,65.2,61.6,29.95,ENE,75,14.0,19.0,88,0.00,,---,0.03,VWS V14.01,2013-05-05 23:49:00,
2013-05-05 19:54:00,64.9,61.3,29.95,ENE,69,13.0,20.0,88,0.00,,---,0.03,VWS V14.01,2013-05-05 23:54:00,
2013-05-05 19:59:00,64.8,61.2,29.96,East,85,13.0,17.0,88,0.00,,---,0.03,VWS V14.01,2013-05-05 23:59:00,
2013-05-05 20:04:00,64.7,61.4,29.96,East,84,11.0,17.0,89,0.00,,---,0.03,VWS V14.01,2013-05-06 00:04:00,
2013-05-05 20:09:00,64.6,61.3,29.96,ENE,66,13.0,15.0,89,0.00,,---,0.03,VWS V14.01,2013-05-06 00:09:00,
2013-05-05 20:14:00,64.4,61.1,29.96,East,79,15.0,15.0,89,0.00,,---,0.03,VWS V14.01,2013-05-06 00:14:00,
2013-05-05 20:19:00,64.3,61.0,29.96,ENE,67,9.0,16.0,89,0.00,,---,0.03,VWS V14.01,2013-05-06 00:19:00,
2013-05-05 20:24:00,64.2,61.2,29.96,East,84,13.0,17.0,90,0.00,,---,0.03,VWS V14.01,2013-05-06 00:24:00,
2013-05-05 20:29:00,64.0,61.0,29.96,East,82,10.0,16.0,90,0.00,,---,0.03,VWS V14.01,2013-05-06 00:29:00,
2013-05-05 20:34:00,63.9,60.9,29.96,East,84,16.0,17.0,90,0.00,,---,0.03,VWS V14.01,2013-05-06 00:34:00,
2013-05-05 20:39:00,63.7,60.7,29.95,ENE,68,11.0,16.0,90,0.00,,---,0.03,VWS V14.01,2013-05-06 00:39:00,
2013-05-05 20:44:00,63.6,60.9,29.95,ENE,69,15.0,16.0,91,0.00,,---,0.03,VWS V14.01,2013-05-06 00:44:00,
2013-05-05 20:49:00,63.6,60.9,29.95,East,79,14.0,15.0,91,0.00,,---,0.03,VWS V14.01,2013-05-06 00:49:00,
2013-05-05 20:54:00,63.5,60.8,29.95,ENE,67,14.0,18.0,91,0.00,,---,0.03,VWS V14.01,2013-05-06 00:54:00,
2013-05-05 20:59:00,63.4,60.7,29.96,East,88,14.0,18.0,91,0.00,,---,0.03,VWS V14.01,2013-05-06 00:59:00,
2013-05-05 21:04:00,63.4,60.7,29.96,ENE,74,14.0,17.0,91,0.00,,---,0.03,VWS V14.01,2013-05-06 01:04:00,
2013-05-05 21:09:00,63.4,60.7,29.95,East,80,16.0,22.0,91,0.00,,---,0.03,VWS V14.01,2013-05-06 01:09:00,
2013-05-05 21:14:00,63.4,61.0,29.95,ENE,72,13.0,15.0,92,0.00,,---,0.03,VWS V14.01,2013-05-06 01:14:00,
2013-05-05 21:19:00,63.3,60.9,29.95,ENE,75,16.0,17.0,92,0.00,,---,0.03,VWS V14.01,2013-05-06 01:19:00,
2013-05-05 21:24:00,63.2,60.8,29.95,ENE,74,9.0,19.0,92,0.00,,---,0.03,VWS V14.01,2013-05-06 01:24:00,
2013-05-05 21:29:00,63.2,60.8,29.95,East,90,13.0,17.0,92,0.00,,---,0.03,VWS V14.01,2013-05-06 01:29:00,
2013-05-05 21:34:00,63.1,60.7,29.95,ENE,57,9.0,16.0,92,0.00,,---,0.03,VWS V14.01,2013-05-06 01:34:00,
2013-05-05 21:39:00,63.1,60.7,29.96,East,82,15.0,21.0,92,0.00,,---,0.03,VWS V14.01,2013-05-06 01:39:00,
2013-05-05 21:44:00,63.1,60.7,29.96,East,86,14.0,19.0,92,0.00,,---,0.03,VWS V14.01,2013-05-06 01:44:00,
2013-05-05 21:49:00,63.1,60.7,29.96,NE,51,9.0,15.0,92,0.00,,---,0.03,VWS V14.01,2013-05-06 01:49:00,
2013-05-05 21:54:00,63.1,60.7,29.96,ENE,75,13.0,15.0,92,0.00,,---,0.03,VWS V14.01,2013-05-06 01:54:00,
2013-05-05 21:59:00,63.1,60.7,29.96,ENE,73,9.0,17.0,92,0.00,,---,0.03,VWS V14.01,2013-05-06 01:59:00,
2013-05-05 22:04:00,63.0,60.6,29.96,East,79,14.0,16.0,92,0.00,,---,0.03,VWS V14.01,2013-05-06 02:04:00,
2013-05-05 22:09:00,63.1,60.7,29.96,East,80,11.0,17.0,92,0.00,,---,0.03,VWS V14.01,2013-05-06 02:09:00,
2013-05-05 22:14:00,63.1,60.7,29.96,ENE,74,13.0,14.0,92,0.00,,---,0.03,VWS V14.01,2013-05-06 02:14:00,
2013-05-05 22:19:00,63.1,61.0,29.96,East,79,11.0,18.0,93,0.00,,---,0.03,VWS V14.01,2013-05-06 02:19:00,
2013-05-05 22:24:00,63.1,61.0,29.97,East,90,14.0,16.0,93,0.00,,---,0.03,VWS V14.01,2013-05-06 02:24:00,
2013-05-05 22:29:00,63.1,61.0,29.97,East,84,13.0,15.0,93,0.00,,---,0.03,VWS V14.01,2013-05-06 02:29:00,
2013-05-05 22:34:00,63.1,61.0,29.97,East,85,11.0,17.0,93,0.00,,---,0.03,VWS V14.01,2013-05-06 02:34:00,
2013-05-05 22:39:00,63.2,61.2,29.96,ENE,78,12.0,16.0,93,0.00,,---,0.03,VWS V14.01,2013-05-06 02:39:00,
2013-05-05 22:44:00,63.2,60.8,29.96,East,81,10.0,14.0,92,0.00,,---,0.03,VWS V14.01,2013-05-06 02:44:00,
2013-05-05 22:49:00,63.2,60.8,29.96,East,83,11.0,16.0,92,0.00,,---,0.03,VWS V14.01,2013-05-06 02:49:00,
2013-05-05 22:54:00,63.2,61.2,29.96,ENE,71,11.0,14.0,93,0.00,,---,0.03,VWS V14.01,2013-05-06 02:54:00,
2013-05-05 22:59:00,63.1,61.0,29.95,East,81,13.0,17.0,93,0.00,,---,0.03,VWS V14.01,2013-05-06 02:59:00,
2013-05-05 23:04:00,63.1,61.0,29.95,ENE,78,10.0,13.0,93,0.00,,---,0.03,VWS V14.01,2013-05-06 03:04:00,
2013-05-05 23:09:00,63.1,61.0,29.95,ENE,65,10.0,11.0,93,0.00,,---,0.03,VWS V14.01,2013-05-06 03:09:00,
2013-05-05 23:14:00,63.1,61.0,29.96,ENE,76,10.0,12.0,93,0.00,,---,0.03,VWS V14.01,2013-05-06 03:14:00,
2013-05-05 23:19:00,63.1,61.0,29.96,East,87,8.0,9.0,93,0.00,,---,0.03,VWS V14.01,2013-05-06 03:19:00,
2013-05-05 23:24:00,63.1,61.0,29.96,ENE,67,12.0,12.0,93,0.00,,---,0.03,VWS V14.01,2013-05-06 03:24:00,
2013-05-05 23:29:00,63.0,61.0,29.96,ENE,63,11.0,13.0,93,0.00,,---,0.03,VWS V14.01,2013-05-06 03:29:00,
2013-05-05 23:34:00,63.1,61.0,29.95,ENE,69,8.0,10.0,93,0.00,,---,0.03,VWS V14.01,2013-05-06 03:34:00,
2013-05-05 23:39:00,63.1,61.0,29.95,ENE,66,7.0,13.0,93,0.00,,---,0.03,VWS V14.01,2013-05-06 03:39:00,
2013-05-05 23:44:00,63.1,61.0,29.95,East,79,13.0,13.0,93,0.00,,---,0.03,VWS V14.01,2013-05-06 03:44:00,
2013-05-05 23:49:00,63.3,60.9,29.95,ENE,67,9.0,12.0,92,0.00,,---,0.03,VWS V14.01,2013-05-06 03:49:00,
2013-05-05 23:54:00,63.2,60.8,29.95,ENE,67,9.0,11.0,92,0.00,,---,0.03,VWS V14.01,2013-05-06 03:54:00,
2013-05-05 23:59:00,63.1,60.7,29.95,ENE,74,7.0,13.0,92,0.00,,---,0.03,VWS V14.01,2013-05-06 03:59:00,